Regional Weather Roundup
Issued by NWS Green Bay, WI

Home | Current Version | Previous Version | Graphics & Text | Print | Product List | Glossary Off
Versions: 1 2 3 4 5 6 7 8 9 10 11 12 13 14 15 16 17 18 19 20 21 22 23 24 25 26 27 28 29 30 31 32 33 34 35 36 37 38 39 40 41 42 43 44 45 46 47 48 49 50

000
ASUS43 KGRB 220359
RWRGRB

NORTH-CENTRAL AND NORTHEAST WISCONSIN REGIONAL WEATHER ROUNDUP
NATIONAL WEATHER SERVICE GREEN BAY WI
1100 PM CDT THU AUG 21 2014

WIZ005-009-010>012-018-019-220500-
NORTH CENTRAL WISCONSIN

CITY           SKY/WX    TMP DP  RH WIND       PRES   REMARKS
IRONWOOD       CLOUDY    68  66  94 E7        29.90S
MANITOWISH WTR NOT AVBL
ARBOR VITAE    NOT AVBL
EAGLE RIVER    NOT AVBL
LAND O LAKES   NOT AVBL
RHINELANDER    LGT RAIN  63  63 100 E6        29.97S FOG
PHILLIPS       CLOUDY    66  65  98 SE6       29.92F FOG
ANTIGO         NOT AVBL
TOMAHAWK       NOT AVBL
MERRILL        NOT AVBL
$$

WIZ013-073-220500-
NORTHEAST WISCONSIN

CITY           SKY/WX    TMP DP  RH WIND       PRES   REMARKS
IRON MOUNTAIN  CLOUDY    65  62  90 SE5       29.96F
MARINETTE      MOCLDY    66  61  82 E6        29.95S
$$

WIZ017-030-035>037-045-220500-
CENTRAL WISCONSIN

CITY           SKY/WX    TMP DP  RH WIND       PRES   REMARKS
MEDFORD        NOT AVBL
WAUSAU         CLOUDY    65  65 100 E8        29.94S FOG
MOSINEE        NOT AVBL
MARSHFIELD     CLOUDY    71  69  93 E5        29.92S FOG
WISC RAPIDS    CLOUDY    73  70  90 E6        29.93R
STEVENS POINT  NOT AVBL
WAUPACA        NOT AVBL
SHAWANO        CLOUDY    68  64  88 CALM      29.95S
CLINTONVILLE   NOT AVBL
$$

WIZ038-039-048-051-220500-
FOX VALLEY

CITY           SKY/WX    TMP DP  RH WIND       PRES   REMARKS
NWS GREEN BAY  MOCLDY    66  64  93 SE5       29.94F
APPLETON       CLOUDY    68  66  94 VRB5      29.94F FOG
OSHKOSH        PTCLDY    70  69  97 E5        29.93S FOG
FOND DU LAC    CLEAR     70  68  93 SE5       29.94S
$$

WIZ022-050-052-220500-
EAST CENTRAL WISCONSIN

CITY           SKY/WX    TMP DP  RH WIND       PRES   REMARKS
STURGEON BAY   CLOUDY    64  61  88 E6        29.97S
MANITOWOC      NOT AVBL
SHEBOYGAN      FOG       67  66  97 E3        29.96S VSB 1/4
$$

LMZ563-521-522-541>543-220500-
LAKESHORE

STATION/POSITION TIME  TEMP    WIND        PRES    VSBY  WAVE
                       AIR SEA DIR/SP/G                  HT/PER
                 (UTC) (F)     (DEG/KT/KT) (MB)    (MI)  (FT/S)
SHEBOYGAN LKSHOR 0300   66 66  100/  4/  4 1014.5F
KEWAUNEE LKSHORE 0300   65     100/  1/  3 1013.5F
ALGOMA MARINA    0300          150/  2/  4   N/A
TWO RIVERS CG    0300   65 72                N/A
NORTHPORT PIER   0300   66     110/  4/  6 1014.6F
N MID LAKE BUOY  0300   65 65  100/  6/  8 1014.5R         0
S GREEN BAY BUOY 0300   67     VRB  6      1015.3S
SISTER BAY LKSHO 0300   66     110/  5/  7   N/A
CHAMBERS ISLAND  0300   67      60/  1/  4 1014.9S
MENOMINEE LKSHOR 0300   68      70/  6/  7 1015.1F
$$



USA.gov is the U.S. government's official web portal to all federal, state and local government web resources and services.